www.pogodaiklimat.ru

Погода и климат >> Архив погоды >> Россия >> Ростовская область >> Зерноград


ПОГОДА в Зерноград

  • Прогноз погоды в Зерноград
  • Монитор погоды в Зерноград

АРХИВ ПОГОДЫ в Зерноград

Время (UTC), дата Ветер
(напр.,м/с)
 
Видим.   Явления Облачность Т
(С)
Тd
(С)
f
(%)
Тe
(С)
Тes
(С)
Комфортность P
(гПа)
Po
(гПа)
Тmin
(С)
Tmax
(С)
R
(мм)
R24
(мм)
S
(см)
06 16.08 В 3 20 км в посл. час ливневой дождь 10/8 600 м
[Cb cap Ac As]
+21.4 +11.5 53 +23 +24 комфорт 1006.2 996.3 +19.7
09 16.08 Ю 2
{10}
20 км 10/3 1000 м
[Cb cap Ac As]
+24.9 +14.2 51 +27 +30 жарко 1008.0 998.1
12 16.08 штиль 0 20 км {ливн. осадки} 10/5 600 м
[Cb cap Ac As]
+27.3 +16.2 51 +31 +33 душно 1007.0 997.2
15 16.08 В 1 20 км 10/0
[Ac As]
+27.0 +16.7 53 +31 +31 душно 1005.8 996.1 +27.3 0.0
18 16.08 З 1 20 км 10/5 1000 м
[Cb cap Ac As]
+25.7 +16.4 56 +29 +29 душно 1007.1 997.3
21 16.08 СВ 1 4000 м слаб. ливневой дождь 10/10 600 м
[Cb cap]
+21.6 +20.1 91 +27 +27 душно 1007.2 997.3
00 17.08 В 1 20 км {ливн. осадки} 8/4 1000 м
[Sc Ac trans]
+21.2 +18.4 84 +25 +25 комфорт 1006.3 996.4
03 17.08 З 3 4000 м слаб. ливневой дождь 10/10 600 м
[Cb cap]
+19.4 +17.8 90 +22 +22 комфорт 1008.1 998.2 +19.4 4
06 17.08 С 1 4000 м дымка {ливн. осадки} 10/10 600 м
[Cb cap]
+20.2 +18.6 91 +25 +25 комфорт 1008.0 998.0 +19.4
09 17.08 Ю 2 20 км {ливн. осадки} 8/5 1000 м
[Cb cap Ac lent]
+24.6 +19.1 71 +30 +33 очень
душно
1008.6 998.8
12 17.08 СЗ 2 20 км {ливн. осадки} 6/5 1000 м
[Cb cap Ac lent]
+28.4 +16.9 50 +32 +36 душно 1008.4 998.7
15 17.08 штиль 0 20 км 6/0
[Cc]
+27.9 +16.6 50 +31 +33 душно 1008.4 998.7 +29.0 2
18 17.08 штиль 0 20 км 8/0
[Ac trans Ci fib]
+22.2 +18.5 80 +27 +27 душно 1009.3 999.4
21 17.08 СЗ 1 20 км ясно +21.0 +17.6 81 +26 +26 душно 1009.8 999.8
00 18.08 штиль 0 4000 м дымка ясно +19.2 +18.0 93 +21 +21 комфорт 1009.6 999.6
03 18.08 штиль 0 4000 м дымка 8/0
[Ac lent Cc]
+18.8 +17.9 95 +20 +20 1009.8 999.8 +18.7
06 18.08 В 1 10 км 10/10 1000 м
[Cb cap]
+22.0 +19.1 84 +27 +27 душно 1010.0 1000.1
09 18.08 С 1 10 км {ливн. осадки} 10/10 600 м
[Cb cap]
+22.6 +20.2 86 +29 +29 очень
душно
1010.3 1000.4
12 18.08 В 1 20 км {ливн. осадки} 6/3 1000 м
[Cu hum Ci sp]
+27.7 +18.4 57 +33 +40 очень
душно
1009.9 1000.1
15 18.08 СВ 1 20 км 5/0
[Ac lent Cc]
+27.6 +18.0 56 +32 +33 очень
душно
1010.4 1000.6 +28.5 2
18 18.08 штиль 0 20 км 3/0
[Ac trans Ci fib]
+22.8 +18.9 79 +29 +29 очень
душно
1011.5 1001.6
21 18.08 С 1 20 км 4/0
[Ac lent Ci fib]
+22.0 +18.5 81 +27 +27 душно 1012.2 1002.2
00 19.08 СЗ 2 4000 м дымка {ливн. осадки} 6/4 1000 м
[Cb cap Ac trans]
+19.7 +18.0 90 +23 +23 комфорт 1013.1 1003.1
03 19.08 С 1 4000 м дымка 8/3 1000 м
[Cb cap Ac As Ci fib]
+20.2 +18.8 92 +25 +25 комфорт 1013.6 1003.6 +19.7 0.0
06 19.08 СЗ 1 20 км слаб. ливневой дождь {гроза} 10/10 600 м
[Cb cap]
+21.7 +18.2 80 +26 +26 душно 1015.7 1005.8
09 19.08 СВ 2 20 км в посл. час ливневой дождь {гроза} 8/8 600 м
[Cb cap]
+24.0 +19.3 75 +29 +32 душно 1015.6 1005.7
12 19.08 С 2 20 км {гроза, ливн. осадки} 8/4 1000 м
[Cb cap Ac lent Ci fib]
+28.3 +18.7 56 +33 +37 очень
душно
1015.4 1005.6
15 19.08 СВ 1 20 км 8/3 1000 м
[Cb cap Ac lent Ci fib]
+28.2 +17.9 54 +33 +33 очень
душно
1015.7 1005.9 +28.9 4
18 19.08 С 1 20 км 3/0
[Ci fib]
+24.1 +18.6 71 +29 +29 душно 1017.0 1007.1
21 19.08 С 1 20 км ясно +22.3 +18.5 79 +28 +28 душно 1017.0 1007.0
00 20.08 С 1 10 км ясно +21.0 +18.7 87 +27 +27 душно 1016.7 1006.7
03 20.08 С 1 4000 м дымка ясно +20.1 +18.5 91 +25 +25 комфорт 1017.4 1007.3 +20.0
06 20.08 СВ 2 20 км ясно +26.6 +17.8 58 +31 +38 душно 1017.6 1007.8
09 20.08 С 2 20 км ясно +32.6 +15.8 36 +35 +50 душно 1017.0 1007.3
12 20.08 СВ 2 20 км ясно +34.8 +14.0 29 +36 +45 душно 1015.6 1006.0
15 20.08 СВ 2 20 км ясно +33.6 +13.0 29 +34 +35 очень
жарко
1015.8 1006.2 +35.1
18 20.08 С 2 20 км 3/0
[Ci fib]
+28.8 +16.1 46 +32 +32 душно 1015.9 1006.1
21 20.08 С 2 20 км 4/0
[Ac As Ci fib]
+25.7 +15.8 54 +29 +29 душно 1016.4 1006.5
00 21.08 СВ 3 20 км ясно +23.6 +15.4 60 +27 +27 жарко 1015.7 1005.8
03 21.08 СВ 3 20 км 8/0
[Ci]
+21.5 +15.6 69 +25 +25 комфорт 1015.9 1005.9 +21.5
06 21.08 СВ 2 20 км 5/0
[Ci fib]
+25.7 +15.2 52 +29 +35 душно 1016.3 1006.4 +21.5
09 21.08 СВ 3 20 км 6/0
[Ci sp]
+31.9 +11.8 29 +32 +43 жарко 1015.2 1005.6
12 21.08 СВ 3 20 км 8/0
[Ci]
+34.8 +6.8 18 +33 +39 жарко 1013.7 1004.1
15 21.08 СВ 2 20 км 3/0
[Ci fib]
+33.1 +6.0 18 +31 +32 жарко 1013.1 1003.4 +35.3
18 21.08 СВ 1 20 км 3/0
[Ci fib]
+28.5 +6.9 26 +28 +28 жарко 1013.3 1003.5
21 21.08 СВ 1 20 км ясно +25.9 +9.7 36 +27 +27 жарко 1013.3 1003.5
00 22.08 СВ 1 20 км ясно +23.2 +10.5 45 +25 +25 комфорт 1013.6 1003.7
03 22.08 СВ 2 20 км 3/0
[Ci fib]
+21.6 +12.3 55 +24 +24 комфорт 1014.0 1004.0 +21.3
06 22.08 В 3 20 км 5/0
[Ac cast Ci fib]
+27.4 +12.2 39 +29 +33 жарко 1014.3 1004.5
09 22.08 В 3 20 км 3/0
[Ci fib]
+33.8 +10.0 23 +33 +44 жарко 1013.7 1004.1
12 22.08 СВ 3
{10}
20 км 4/0
[Ci fib]
+35.8 +10.5 22 +35 +42 очень
жарко
1012.8 1003.3
15 22.08 СВ 2 20 км 8/0
[Ci]
+34.6 +7.1 18 +33 +33 жарко 1012.6 1003.0 +36.1
18 22.08 СВ 1 20 км 6/0
[Ci fib]
+29.6 +10.1 30 +30 +30 жарко 1013.6 1003.9
21 22.08 С 1 20 км 8/0
[Ci fib]
+26.1 +10.1 37 +27 +27 жарко 1013.9 1004.0
00 23.08 СВ 2 20 км 6/0
[Ci fib]
+24.4 +12.1 46 +26 +26 жарко 1013.6 1003.7
03 23.08 СВ 2 20 км 3/0
[Ci fib]
+22.0 +12.8 56 +25 +25 комфорт 1014.1 1004.1 +22.0

 

Местоположение метеостанции Зерноград (Ростовская область, Россия): широта 46.85 долгота 40.32 высота над уровнем моря 86 м.

В архиве по умолчанию представлена погода в Зерноград за последнюю неделю. Архивные данные за месяц целиком и за предыдущие месяцы, начиная с января 2011 года, Вы можете получить, выбрав интересующий диапазон дат из раскрывающегося списка и нажав кнопку "Ввод!".


*Определитесь, кто Вы:
робот инопланетянин человек

Внимание! Время в таблицах - всемирное. Для получения местного времени необходимо прибавить поправку, которая равна 3 ч.

Смотрите также архив погоды в соседних городах и на ближайших метеорологических станциях:

Погода в Ростове-на-Дону (Ростовская область, Россия) (60 км)
Погода в Кущевской (Краснодарский край, Россия) (64 км)
Погода в Аэропорту Платов (Ростовская область, Россия) (77 км)
Погода в Семикаракорске (Ростовская область, Россия) (84 км)
Погода в Гиганте (Ростовская область, Россия) (87 км)
Погода в Сосыке (Краснодарский край, Россия) (88 км)
Погода в Шахтах (Ростовская область, Россия) (95 км)
Погода в Белой Глине (Краснодарский край, Россия) (96 км)
Погода в Константиновске (Ростовская область, Россия) (100 км)
Погода в Староминская (Краснодарский край, Россия) (105 км)

Пояснения к столбцам:

Ветер - указаны скорость ветра в м/с - средняя за 10 мин, порывы в срок и между сроками (в фигурных скобках) и направление, откуда дует ветер: С - северный, СВ - северо-восточный, В - восточный, ЮВ - юго-восточный, Ю - южный, ЮЗ - юго-западный, З - западный, СЗ - северо-западный.
Видимость - горизонтальная дальность видимости в метрах или километрах. При видимости от 1 до 10 км при отсутствии осадков обычно наблюдается дымка, при ухудшении видимости до 1 км и менее - туман. В сухую погоду видимость может ухудшаться дымом, пылью или мглою.
Явления - указаны атмосферные явления, наблюдавшиеся в срок или в последний час перед сроком; фигурными скобками обозначены явления, наблюдавшиеся между сроками (за 1-3 часа до срока); квадратными скобками обозначены град или гололедные отложения с указанием их диаметра в мм.
Облачность - указаны через наклонную черту общая и нижняя облачность в баллах и высота нижней границы облаков в метрах; квадратными скобками обозначены формы облаков: Ci - перистые, Cs - перисто-слоистые, Cc - перисто-кучевые, Ac - высококучевые, As - высокослоистые, Sc - слоисто-кучевые, Ns - слоисто-дождевые, Cu - кучевые, Cb - кучево-дождевые. Подробнее классификацию облаков см. в Атласе облаков (PDF).
T - Температура воздуха - температура, измеренная на высоте 2 м над землей.
Td - Температура точки росы - температура, при понижении до которой содержащийся в воздухе водяной пар достигнет насыщения.
f - Относительная влажность воздуха - влажноcть воздуха, измеренная на высоте 2 м над землей.
Te - Эффективная температура - температура, которую ощущает одетый по сезону человек в тени. Характеристика душности погоды. При расчете учитывается влияние влажности воздуха и скорости ветра на теплоощущения человека.
Tes - Эффективная температура на солнце - температура, которую ощущает человек, с поправкой на солнечный нагрев. Характеристика знойности погоды. Зависит от высоты солнца над горизонтом, облачности и скорости ветра. Ночью, в пасмурную погоду, а также при ветре 12 м/с и более поправка равна нулю.
P - Атмосферное давление - приведенное к уровню моря атмосферное давление.
Po - Атмосферное давление - измеренное на уровне метеостанции атмосферное давление.
Tmin - Минимальная температура - минимум температуры воздуха на высоте 2 м над землей.
Tmax - Максимальная температура - максимум температуры воздуха на высоте 2 м над землей.
R - Количество осадков - Количество выпавших осадков за период времени, мм. При наведении курсора мыши на число - период времени, за который выпало указанное количество осадков.
R24 - Количество осадков - Количество выпавших осадков за 24 часа, мм.
S - Снежный покров - Высота снежного покрова, см. При наведении курсора мыши на число - состояние снежного покрова и степень покрытия местности в баллах.